Regional Weather Roundup
Issued by NWS

Home | Current Version | Previous Version | Graphics & Text | Print | Product List | Glossary Off
Versions: 1 2 3 4 5 6 7 8 9 10 11 12 13 14 15 16 17 18 19 20 21 22 23 24 25 26 27 28 29 30 31 32 33 34 35 36 37 38 39 40 41 42 43 44 45 46 47 48 49 50

000
ASUS43 KTOP 232008
RWRKS

WEATHER ROUNDUP FOR KANSAS
NATIONAL WEATHER SERVICE GOODLAND KS
300 PM CDT WED APR 23 2014

NOTE:  "FAIR" INDICATES FEW OR NO CLOUDS BELOW 12,000 FEET WITH NO
SIGNIFICANT WEATHER AND/OR OBSTRUCTIONS TO VISIBILITY.

KSZ001>006-013>018-027>032-041>047-232100-
NORTHWEST KANSAS

CITY           SKY/WX    TMP DP  RH WIND       PRES   REMARKS
GOODLAND       PTSUNNY   84  27  12 SW9G22    29.55F
HAYS           CLOUDY   N/A N/A N/A S33G46    29.57F
HILL CITY      CLOUDY    85  48  27 SW20G38   29.53F
RUSSELL        PTSUNNY   83  50  31 S37G47    29.59F
$$

KSZ061>065-074>080-084>089-232100-
SOUTHWEST KANSAS

CITY           SKY/WX    TMP DP  RH WIND       PRES   REMARKS
DODGE CITY     PTSUNNY   83  46  27 S35G45    29.63F
ELKHART          N/A    N/A N/A N/A MISG        N/A
GARDEN CITY    PTSUNNY   83  50  31 S31G43    29.59F
GREAT BEND     CLOUDY    79  50  36 S30G37    29.61F
LIBERAL        CLOUDY    84  54  34 S31G38    29.62F
PRATT          CLOUDY    72  50  46 S21G28    29.71F
$$

KSZ066>073-081>083-090>101-232100-
SOUTHEAST KANSAS

CITY           SKY/WX    TMP DP  RH WIND       PRES   REMARKS
CHANUTE        SUNNY     81  47  30 S23       29.81F
COFFEYVILLE    SUNNY     82  49  31 S16G24    29.81F
HUTCHINSON     CLOUDY    81  46  29 S26G35    29.69R
MEDICINE LODGE   N/A     81  51  35 S16G23    29.70F
NEWTON         MOSUNNY   84  46  26 S31G40    29.74F
PARSONS        SUNNY     83  46  27 S16G24    29.82F
WICHITA INTL   PTSUNNY   85  42  22 S29G37    29.72F
WICHITA JABRA  MOSUNNY   85  45  24 S23G38    29.72F
WICHITA MCCONL MOSUNNY   84  42  22 S29G35    29.73F
$$

KSZ007>012-019>026-033>040-048>060-102>105-232100-
NORTHEAST KANSAS

CITY           SKY/WX    TMP DP  RH WIND       PRES   REMARKS
CONCORDIA      CLOUDY    79  49  34 S25G41    29.63F
EMPORIA        MOSUNNY   80  46  30 S23G32    29.76F
LAWRENCE       MOSUNNY   76  43  30 SE23G30   29.81S
MANHATTAN      CLOUDY    81  45  28 SE17G31   29.69F
OLATHE IND     MOSUNNY   73  43  33 SE22G33   29.84S
OLATHE EXE     MOSUNNY   71  43  36 SE20G26   29.83F
SALINA         CLOUDY    85  48  27 S25G41    29.65F
TOPEKA BILLARD PTSUNNY   78  45  30 SE16G29   29.79S
TOPEKA FORBES  PTSUNNY   78  44  29 S21G30    29.78S
$$



USA.gov is the U.S. government's official web portal to all federal, state and local government web resources and services.